RH
100 99 100 100 100 100 100 100 100 100 99 100 100 100 100 100 100 100 99 90 82 78 88 76 63 73 87 90 90 89 91 98 78 75 76 85 82 84 93 100 100 100 100 100 100 98 92 100 88 63 70 76 80 80
93 95 88 84 89 91 97 91 86 87 82 81 84 91 90 90 88 100 100 95 82 71 62 81 87 82 69 79 83 90 97 84 72 69 68 64 78 81 80 88 94 100 100 100 100 100 100 96 78 91 96 84 96 84
60 58 48 45 50 59 58 63 64 64 76 78 76 67 75 83 85 88 76 70 81 82 88 84 87 73 80 92 77 74 81 70 74 66 50 52 50 47 58 62 67 66 92 89 96 92 84 80 74 67 77 75 65 69
65 71 68 44 42 47 51 53 49 55 65 64 60 75 76 70 74 89 98 68 55 56 51 66 59 77 76 67 67 57 63 59 46 45 40 38 35 42 42 40 39 59 61 80 51 53 38 49 54 66 60 53 44 39
100 100 84 83 65 57 51 51 56 44 52 56 49 48 53 60 56 63 65 65 41 42 36 38 42 51 38 36 51 40 23 25 26 26 28 30 31 30 26 22 27 40 43 27 20 24 24 25 30 28 24 24 26 27
84 82 72 53 61 62 78 76 58 57 46 32 30 28 23 25 37 34 25 37 30 24 23 24 27 30 27 22 23 19 16 16 16 17 18 18 20 19 13 14 28 42 16 16 15 14 15 15 14 14 13 14 15 15
70 68 63 47 42 53 52 46 26 24 21 20 19 18 18 19 19 17 16 18 18 17 17 16 17 20 22 21 17 16 16 16 14 16 17 17 20 16 15 14 18 15 14 14 13 12 12 12 11 12 12 12 12 13
27 26 26 26 24 24 23 22 21 20 18 17 17 17 16 16 15 15 14 14 15 14 15 15 17 18 18 16 18 18 17 16 15 14 15 15 15 14 15 14 13 13 13 12 11 10 10 11 11 10 10 10 10 10
23 22 21 20 19 19 19 18 17 16 16 15 15 15 16 16 13 13 14 14 13 12 12 13 14 13 14 14 15 15 16 15 15 15 15 14 14 14 13 12 11 11 10 10 10 11 10 10 10 9 9 9 8 8
17 16 17 17 17 17 16 17 16 16 15 14 14 15 15 15 16 16 16 16 16 14 13 13 10 10 10 11 12 12 13 14 13 14 12 12 13 12 10 9 8 7 8 8 8 8 8 8 8 8 7 7 6 6
14 14 14 14 14 14 14 14 14 13 13 12 12 13 13 13 16 16 17 17 16 15 15 15 13 12 12 11 11 10 10 11 11 13 13 13 16 14 9 8 7 6 6 6 6 7 8 7 7 7 7 6 6 5
12 12 12 12 12 12 12 11 11 10 10 9 9 9 10 12 14 14 15 16 16 16 15 15 14 14 12 10 9 10 10 9 9 10 13 14 13 9 8 8 8 7 7 8 8 8 7 7 7 6 7 7 7 7
11 11 11 11 10 10 10 10 10 9 8 8 8 8 8 9 10 11 13 14 14 13 13 12 12 11 10 8 8 8 9 10 10 10 11 9 8 8 9 8 9 10 9 9 9 8 7 7 6 6 6 6 6 6
10 10 10 10 10 10 9 9 8 8 8 8 7 7 8 9 12 12 10 10 11 11 10 9 9 8 8 8 8 7 8 8 8 8 9 8 7 7 8 8 8 9 9 7 7 6 6 6 6 6 5 5 4 4
9 9 9 10 10 9 8 8 9 8 8 7 6 7 10 12 10 10 10 9 8 8 7 7 7 7 6 6 6 6 6 6 6 6 6 6 6 6 6 6 6 6 5 5 5 4 5 5 5 4 4 3 3 3
8 8 9 9 9 8 8 9 9 8 6 6 8 10 10 10 8 7 6 7 6 6 5 6 5 6 6 6 7 7 6 5 4 5 5 5 5 5 4 4 4 4 5 5 4 3 3 3 3 3 3 3 3 3
8 8 9 8 8 8 8 8 7 6 7 9 10 9 8 7 7 6 6 6 6 5 5 5 5 6 6 6 7 5 4 5 4 4 4 5 4 4 4 4 5 5 4 3 3 2 2 2 2 2 2 2 2 2
8 10 8 8 8 8 8 8 8 8 9 9 8 7 6 6 6 6 6 6 6 5 5 5 5 6 6 5 4 4 4 4 4 4 4 4 4 4 4 4 4 3 3 3 2 2 2 2 2 2 2 3 3 3
8 8 8 8 7 7 8 8 8 8 8 8 6 6 6 7 7 7 7 7 6 5 6 7 7 7 4 4 5 6 5 4 4 4 4 5 6 5 4 3 4 4 4 3 2 3 3 3 3 3 3 3 3 3
9 9 8 8 8 10 10 10 7 7 8 8 8 7 7 8 8 8 7 6 6 7 7 5 4 5 7 8 6 5 5 5 6 8 8 5 3 4 4 5 5 4 4 4 4 4 4 4 4 4 3 3 4 4
10 9 10 9 10 11 10 10 9 8 9 10 8 7 7 7 6 5 5 5 6 6 5 5 6 7 6 6 5 6 8 8 9 9 6 4 4 6 5 5 6 5 4 5 5 5 5 5 5 4 4 4 4 4
10 11 10 11 10 9 10 9 9 10 12 10 7 6 6 5 5 5 6 5 4 5 7 8 7 6 6 6 8 9 10 8 6 6 6 7 6 6 6 6 6 6 6 6 6 6 6 5 5 5 5 5 4 4
12 11 11 12 11 9 8 11 12 10 8 6 7 7 6 6 6 7 6 6 7 7 7 6 7 7 8 9 10 8 7 6 7 8 7 7 8 7 7 7 7 6 7 7 6 6 7 6 7 7 7 6 6 6
14 14 13 12 10 11 14 11 9 7 7 10 9 7 7 8 8 6 7 9 8 8 9 8 8 9 9 8 8 8 8 8 8 8 8 8 8 8 7 7 7 7 7 6 7 7 7 7 7 8 8 8 7 7
15 14 12 10 11 13 11 9 8 10 11 10 9 9 7 6 6 8 9 10 10 8 7 9 9 7 7 9 9 8 8 8 8 8 8 8 8 8 8 7 7 7 7 7 7 7 7 7 6 7 7 6 6 6
11 10 10 10 13 12 9 8 9 10 10 9 8 6 6 7 9 11 8 6 7 8 8 7 7 8 8 8 8 8 9 9 9 8 8 8 8 8 9 9 9 9 8 8 7 7 7 7 6 6 6 6 6 7
10 9 11 15 14 10 8 9 9 9 8 6 7 8 11 12 10 8 7 8 7 7 8 8 9 9 9 10 10 10 9 9 8 8 9 10 11 11 11 11 10 9 9 8 8 8 7 7 7 7 7 7 8 8
10 10 14 17 11 8 9 9 10 9 9 10 11 12 8 7 9 8 7 8 9 9 9 10 11 11 11 11 11 10 10 10 10 11 12 12 12 12 11 10 10 9 9 9 9 8 8 7 7 7 8 8 9 8
8 9 14 13 9 9 10 10 9 10 11 10 8 8 10 9 8 9 11 11 11 11 12 12 13 13 13 12 12 11 11 12 12 12 13 13 12 11 10 10 10 10 10 10 10 10 9 9 9 9 9 9 9 9
7 12 12 8 9 11 10 10 12 14 12 10 10 10 10 10 12 12 13 12 12 12 14 15 14 14 14 14 13 13 13 13 14 14 13 12 12 11 10 10 11 11 11 11 11 11 10 10 10 10 10 10 11 11
17 16 10 9 10 11 11 15 15 12 11 11 11 10 11 14 14 13 14 14 14 15 15 14 14 14 15 15 16 16 15 14 14 14 13 13 12 12 12 12 12 11 11 11 11 12 11 11 11 11 11 11 12 12
9 8 9 10 11 13 15 12 10 11 11 11 11 12 14 17 17 16 16 16 16 16 16 16 17 18 18 18 18 17 16 15 14 14 14 13 14 14 13 12 12 12 12 12 11 11 10 10 10 11 12 12 12 12
8 8 9 10 12 13 12 12 11 11 11 13 14 16 19 21 19 17 16 17 18 19 20 20 19 19 19 18 18 17 16 15 15 15 14 14 14 14 14 13 13 13 13 13 13 12 12 12 12 12 11 11 12 13
Wind_Speed
110 109 109 108 105 106 107 105 104 106 105 104 103 104 104 103 102 105 107 107 105 102 101 101 99 98 94 95 94 95 93 94 96 95 94 93 91 89 87 87 90 91 91 90 90 87 85 86 89 92 90 89 87 87
119 116 114 111 113 112 112 114 112 111 109 111 112 111 112 112 109 106 108 109 114 114 109 109 111 107 104 105 103 100 103 103 103 102 100 96 95 94 98 93 97 95 98 97 94 96 96 99 100 99 98 97 95 96
113 115 113 111 113 113 114 113 116 113 113 115 118 116 117 116 117 116 113 115 112 111 110 109 109 109 108 110 111 109 109 108 109 112 108 105 103 104 104 103 104 103 104 103 105 102 103 107 108 108 107 107 108 108
123 124 122 117 115 115 114 114 112 112 113 116 114 119 121 125 122 122 122 121 126 121 115 113 117 116 117 117 118 115 115 118 118 118 116 112 113 114 112 113 111 114 116 116 108 109 112 111 113 113 113 115 115 114
135 133 132 130 126 125 120 118 119 118 118 120 121 121 125 125 124 126 129 126 128 129 125 115 120 121 120 121 123 120 118 120 122 120 120 118 118 125 119 117 110 123 122 121 112 117 116 111 117 120 116 116 114 112
132 133 132 129 132 129 129 130 125 124 124 124 123 123 116 119 124 121 120 129 129 124 127 122 114 115 115 118 118 117 117 117 118 118 116 116 119 125 118 111 114 124 117 116 110 107 109 108 108 109 108 106 106 106
133 133 134 132 130 128 127 125 121 120 121 119 117 116 115 116 112 115 116 115 117 121 121 116 108 109 112 115 117 118 119 118 119 118 116 117 118 124 119 113 119 120 116 115 114 111 108 108 104 102 100 101 99 98
127 126 126 126 124 124 124 123 121 120 119 117 115 113 113 114 113 111 111 109 113 112 113 110 103 109 115 115 115 114 114 116 114 114 113 116 112 121 120 122 116 115 115 114 114 111 106 105 103 99 97 96 94 94
124 123 122 121 120 118 118 118 118 118 117 113 112 110 109 111 110 108 108 108 108 107 106 104 107 107 111 113 113 113 113 112 112 111 112 113 111 115 121 115 114 115 116 114 110 110 107 105 102 98 95 93 92 90
118 117 116 116 116 116 115 115 114 114 112 110 107 103 103 105 105 103 103 101 101 105 104 104 107 106 106 105 106 109 107 106 106 101 107 105 104 111 113 113 111 112 110 107 103 102 101 98 96 94 90 88 87 83
116 116 115 115 114 114 114 114 115 114 112 109 105 102 101 101 101 102 98 97 100 104 106 108 106 103 105 104 102 101 99 100 95 93 94 95 98 100 106 108 109 106 103 101 97 95 94 91 89 86 84 82 79 76
116 115 115 114 113 113 113 112 112 110 108 104 101 97 95 96 94 94 94 97 104 105 106 105 105 104 102 99 94 93 91 90 86 85 81 84 94 99 100 99 96 94 93 92 93 92 89 86 84 80 77 77 75 67
107 108 107 107 107 108 108 108 108 106 101 99 97 92 88 89 88 92 100 100 102 103 101 102 99 97 93 93 88 87 83 84 84 79 79 85 93 93 90 88 84 84 86 87 89 87 84 81 78 75 73 71 67 65
97 97 98 99 101 100 101 100 98 97 94 94 90 83 79 82 89 97 94 95 97 99 98 96 92 90 88 88 84 81 82 78 78 81 85 86 85 83 77 78 76 77 80 81 80 80 78 76 75 76 72 70 66 61
87 89 89 91 92 92 92 90 90 91 90 86 81 74 75 87 88 89 90 91 92 93 93 89 85 83 82 81 78 79 76 75 79 76 76 77 78 79 74 72 72 71 71 73 71 69 68 70 71 69 68 63 62 55
81 81 83 84 84 84 83 82 85 84 80 75 71 75 81 82 83 83 84 84 86 86 83 82 75 71 72 75 73 76 75 71 69 67 68 70 70 72 70 68 67 64 61 63 65 65 65 67 64 61 63 60 52 48
76 74 79 79 78 78 77 78 78 72 69 71 74 78 77 74 76 79 77 78 78 78 76 74 68 66 64 66 71 73 65 63 65 64 66 66 64 65 64 60 59 55 55 56 57 58 58 58 56 54 53 55 49 43
68 71 72 72 72 71 72 70 71 69 69 71 73 75 73 71 70 73 72 69 69 67 62 59 58 57 61 60 64 61 55 57 57 55 57 57 55 52 50 49 52 51 48 48 50 50 50 50 48 45 44 45 45 41
61 62 63 63 62 61 62 61 63 61 64 64 66 66 61 61 64 64 63 62 58 55 49 50 51 57 56 54 51 52 53 53 48 48 47 45 41 44 46 44 42 43 44 44 42 40 42 42 39 37 37 36 36 34
53 53 54 54 51 52 53 56 57 55 56 57 57 56 53 54 55 54 52 51 45 44 45 49 53 53 49 49 48 45 44 41 38 40 40 41 39 37 37 34 36 37 37 34 34 33 32 30 29 30 30 28 29 29
45 47 47 46 46 48 49 49 49 49 48 49 50 48 48 47 46 43 42 38 38 45 47 48 46 46 44 42 38 35 34 32 33 38 40 36 28 27 28 27 30 31 31 29 29 24 25 25 25 27 25 25 26 25
40 38 40 41 42 42 41 42 40 40 42 45 46 41 39 40 39 37 35 37 42 43 39 37 37 36 35 30 28 28 30 34 33 29 26 28 26 21 22 25 28 27 26 26 24 21 21 22 19 19 19 20 20 20
34 35 36 36 38 36 34 32 36 38 38 38 35 37 37 33 32 34 39 37 33 33 33 32 30 29 28 25 25 27 27 25 20 21 21 21 22 21 19 22 21 17 18 19 16 16 17 17 14 15 19 18 15 14
32 33 32 32 31 28 29 33 34 32 30 31 34 33 31 29 33 31 27 24 26 27 28 29 25 22 21 21 19 16 16 15 16 18 17 16 17 17 17 17 14 13 14 12 11 12 13 12 12 14 15 15 15 16
30 30 30 28 24 26 31 30 27 25 28 31 32 32 31 28 23 19 17 19 24 27 23 19 20 18 13 12 12 11 11 13 13 14 14 13 12 12 12 11 10 9 9 10 11 10 10 10 11 13 15 17 18 16
29 28 25 21 23 29 31 27 24 25 29 30 29 25 20 17 14 18 23 22 19 17 18 17 13 10 10 11 10 9 9 10 13 13 9 7 6 6 5 6 6 6 7 8 7 8 9 10 10 10 11 10 9 9
26 22 19 22 30 31 25 23 24 26 25 21 18 15 15 21 20 19 17 16 17 15 13 10 9 9 8 8 8 9 9 9 9 6 4 4 3 3 4 5 5 6 6 6 7 8 8 7 8 8 9 9 10 11
23 20 19 29 32 27 25 24 22 21 17 13 12 16 20 13 13 17 14 12 12 12 10 8 7 7 7 6 6 6 6 6 6 6 6 5 5 5 6 7 7 7 6 6 5 6 6 7 8 9 10 11 10 10
22 17 23 33 28 22 21 17 14 10 10 15 19 13 12 13 11 10 11 11 10 9 8 8 7 6 6 6 6 6 7 7 8 7 6 6 8 9 9 8 7 6 5 5 5 5 6 6 6 7 8 8 8 9
11 23 30 26 21 19 16 10 9 14 19 15 10 11 11 8 9 11 11 11 10 8 7 7 8 8 7 7 6 6 6 6 7 7 7 8 8 8 6 5 5 4 4 4 5 5 6 7 8 8 9 10 10 9
16 25 24 18 15 13 8 10 16 17 14 12 13 11 9 9 12 12 11 10 9 9 9 9 8 8 8 7 5 4 6 7 8 7 7 6 6 5 4 5 6 6 6 6 7 6 6 8 8 7 8 10 11 11
21 17 13 12 12 10 13 16 16 15 13 12 12 13 11 11 11 12 12 11 10 10 9 9 9 9 8 8 8 7 7 7 7 7 7 7 8 6 5 6 6 7 7 7 7 7 8 9 10 10 10 10 10 11
13 9 10 11 12 16 16 15 16 14 14 13 14 14 12 13 14 14 13 12 11 10 10 9 9 10 10 10 10 8 8 8 7 6 6 7 6 6 5 6 6 8 7 7 7 7 8 9 9 8 9 9 9 10
Wind_Direction
259 262 263 263 264 266 266 267 268 269 269 269 271 273 274 275 276 279 280 280 279 279 280 280 281 281 281 279 278 277 279 281 279 279 278 278 278 277 277 278 281 281 283 282 281 282 280 280 282 284 285 286 287 288
259 262 262 264 264 267 268 270 269 269 270 270 271 272 272 275 274 275 276 278 278 281 281 280 280 279 278 278 279 280 278 276 276 277 276 276 276 276 275 276 277 278 280 280 281 282 283 282 283 283 284 286 285 287
263 265 266 267 267 268 267 269 269 269 271 272 272 273 272 272 273 274 276 277 275 276 277 278 278 278 275 276 277 278 279 276 277 276 276 277 279 276 274 273 272 274 276 276 275 278 279 278 279 280 281 282 284 284
267 270 272 267 267 268 269 267 266 265 268 269 271 271 272 271 272 273 271 275 275 274 274 273 276 275 276 275 276 275 276 276 276 276 277 278 278 277 277 278 277 277 276 274 276 276 278 279 280 280 281 283 284 286
268 268 271 272 271 271 271 270 272 268 270 266 267 270 268 269 269 270 271 271 275 273 275 276 276 277 278 276 276 277 275 274 274 276 277 278 279 278 278 279 280 277 276 277 278 277 279 279 279 279 281 282 282 283
265 266 268 271 270 270 272 274 273 273 272 267 268 268 270 270 267 270 272 269 272 274 272 273 273 272 274 277 277 279 278 277 277 278 280 281 280 281 280 283 283 280 282 283 284 284 283 281 282 282 282 283 283 283
267 269 270 271 270 270 271 272 271 272 271 271 270 270 270 273 272 270 272 270 272 273 273 272 273 272 273 273 274 276 276 277 279 281 281 281 280 281 283 285 278 283 284 284 286 284 283 284 285 284 284 284 283 284
267 268 268 269 269 270 271 271 272 271 271 272 271 273 273 273 273 273 273 273 271 270 272 272 272 270 271 271 271 273 274 276 277 278 279 278 281 282 282 281 283 283 285 284 283 285 285 285 286 286 285 284 283 282
266 266 267 268 269 270 270 270 270 271 272 272 273 273 274 275 275 275 275 275 275 275 274 274 272 270 269 270 272 272 273 274 274 276 278 279 279 279 279 282 283 282 281 282 283 283 285 285 285 286 285 285 284 284
264 265 266 267 268 269 270 271 271 271 271 272 273 273 274 274 275 275 275 276 279 278 277 274 271 271 271 271 271 271 273 274 275 277 278 279 280 279 281 281 281 281 281 283 284 284 285 285 284 285 285 284 285 285
264 265 266 267 268 269 270 270 271 271 272 272 273 274 274 274 275 276 277 279 278 275 273 273 274 274 274 273 273 274 274 274 276 276 277 277 277 276 276 278 279 281 283 284 285 285 284 284 284 284 284 283 282 283
262 263 264 265 266 267 268 269 270 270 271 272 272 273 273 274 274 276 277 273 271 271 273 273 274 275 276 276 277 277 278 279 279 277 278 278 276 274 273 274 279 282 284 284 284 283 283 284 285 284 284 283 284 284
260 261 262 264 264 265 266 267 268 269 271 271 271 272 273 274 275 272 270 269 270 271 273 273 274 276 278 279 280 280 282 281 280 282 277 272 270 272 276 279 281 281 280 280 282 284 285 285 286 287 286 284 283 283
258 260 261 262 263 265 266 267 269 270 271 271 272 274 274 274 268 268 269 269 270 272 273 275 277 278 280 281 283 283 282 281 279 275 274 275 278 279 279 278 278 277 278 278 279 280 284 285 283 282 280 279 279 276
258 259 260 262 263 265 266 268 270 271 271 273 274 275 273 268 269 269 270 271 271 273 275 278 279 281 283 284 282 281 280 278 276 277 279 280 281 281 280 278 278 278 279 281 282 282 279 276 275 275 276 275 275 275
258 259 261 263 264 265 267 268 269 270 272 275 277 272 267 268 269 270 270 271 273 275 278 279 280 282 283 283 282 279 277 279 282 282 279 278 278 279 280 281 281 282 282 279 278 277 275 273 274 274 273 274 273 272
258 259 260 261 263 265 266 266 269 273 274 273 271 271 270 271 271 271 272 274 275 277 278 281 284 284 282 280 277 277 281 281 278 278 277 277 277 278 280 281 281 279 276 274 273 273 273 273 273 273 273 274 273 267
257 258 259 260 262 264 266 268 270 271 270 269 270 270 272 274 275 276 276 277 277 278 282 285 283 282 276 275 276 281 281 276 275 275 278 279 279 280 278 275 274 274 274 272 269 270 273 275 275 275 273 272 271 270
255 258 260 262 263 265 266 268 268 268 269 269 270 272 273 274 274 276 279 280 282 285 286 281 278 274 275 275 274 274 275 277 281 282 278 279 277 273 273 274 276 276 274 275 278 279 277 278 279 277 273 269 266 264
257 259 261 262 265 267 266 265 268 269 269 271 272 274 275 275 276 276 279 282 285 280 274 268 266 269 273 274 275 279 282 285 285 283 279 272 273 277 280 280 277 278 280 281 277 277 280 284 285 277 272 269 265 259
258 258 261 263 261 261 263 264 266 269 272 275 274 274 274 277 279 280 279 277 270 265 264 267 271 273 277 279 281 283 284 283 274 266 272 283 286 282 280 277 274 275 276 278 280 285 283 279 274 272 271 266 261 255
252 256 256 257 258 260 261 265 271 272 270 270 272 277 276 274 274 276 277 273 267 269 277 281 281 280 281 284 279 275 271 266 273 286 290 287 289 283 271 271 271 274 282 286 291 287 275 272 269 269 270 266 261 254
251 252 256 258 260 261 266 270 265 263 265 269 271 270 271 276 278 273 267 274 283 284 281 280 281 278 275 277 274 272 277 284 289 281 279 279 278 280 282 271 273 281 278 278 279 274 270 272 276 269 263 263 260 250
249 251 254 258 261 264 258 256 258 262 266 268 268 272 274 270 268 275 284 286 282 281 277 271 278 281 276 278 283 282 276 278 271 269 270 270 273 272 269 273 276 269 268 274 276 272 273 272 260 247 244 248 240 223
250 252 253 254 252 253 254 256 261 265 263 262 264 265 269 277 289 296 285 272 262 261 275 284 273 277 276 275 267 262 258 258 263 265 262 258 259 260 261 263 267 270 275 274 268 263 259 249 237 230 226 223 225 219
246 247 249 252 252 252 255 258 258 254 254 257 263 274 285 292 284 258 251 260 279 278 265 266 274 269 259 256 263 269 273 265 256 251 245 237 241 253 262 277 283 272 267 263 256 244 233 224 217 213 216 217 214 202
247 249 247 243 246 253 256 254 252 255 260 268 277 285 277 256 252 264 266 261 261 267 271 265 255 255 262 265 261 256 245 238 233 215 191 186 196 218 238 246 245 240 239 240 240 235 225 202 181 172 172 176 186 196
247 242 233 240 246 250 250 249 249 256 267 276 269 254 259 277 270 260 269 273 265 254 247 248 251 246 239 232 224 215 202 193 184 167 167 178 189 206 218 216 211 206 200 202 210 207 195 182 177 168 164 161 165 176
242 227 226 238 245 247 250 254 259 265 244 235 239 246 254 251 263 276 266 255 244 232 225 218 212 204 198 194 184 176 173 175 172 166 167 190 203 201 194 187 183 186 182 172 175 186 180 163 159 166 162 156 163 171
232 215 227 238 238 240 247 240 232 228 231 239 248 243 245 247 252 242 230 227 218 209 201 190 178 169 157 151 150 159 165 167 173 178 190 196 198 187 176 164 149 147 147 142 136 141 158 160 158 163 157 150 151 155
206 226 231 233 233 234 226 208 218 229 235 234 235 226 206 209 224 224 218 208 189 177 177 173 155 141 137 136 141 169 178 183 186 183 176 169 152 125 130 145 136 131 124 123 120 125 144 146 141 140 145 147 148 150
220 227 222 214 214 201 205 217 222 221 218 216 209 198 189 202 214 212 197 179 168 163 159 152 142 137 146 150 153 168 176 167 163 152 145 132 117 118 137 140 142 136 130 124 117 123 132 135 134 138 144 149 155 159
239 218 205 195 191 202 211 212 211 209 205 197 196 188 185 196 199 193 176 160 148 146 150 153 152 149 147 145 144 145 148 142 136 133 128 124 123 131 146 158 163 155 151 147 146 149 147 138 133 133 135 139 145 156